Regional Weather Roundup
Issued by NWS Cleveland, OH

Home | Current Version | Previous Version | Graphics & Text | Print | Product List | Glossary On
Versions: 1 2 3 4 5 6 7 8 9 10 11 12 13 14 15 16 17 18 19 20 21 22 23 24 25 26 27 28 29 30 31 32 33 34 35 36 37 38 39 40 41 42 43 44 45 46 47 48 49 50
000
ASUS41 KCLE 031110
RWRCLE
OHIO REGIONAL WEATHER ROUNDUP
NATIONAL WEATHER SERVICE WILMINGTON, OH
700 AM EDT MON AUG 03 2015

NOTE: "FAIR" INDICATES FEW OR NO CLOUDS BELOW 12,000 FEET WITH NO
SIGNIFICANT WEATHER AND/OR OBSTRUCTIONS TO VISIBILITY.

OHZ001>008-015>018-024>027-034-035-043-044-031200-
   NORTHWEST OHIO

CITY           SKY/WX    TMP DP  RH WIND       PRES   REMARKS
DEFIANCE       CLOUDY    63  61  93 SW6       29.80S
FINDLAY        CLOUDY    64  60  87 S13       29.79R
TOLEDO EXPRESS CLOUDY    62  61  96 W6        29.78R
TOLEDO EXEC    CLOUDY    64  60  87 SW8       29.79S
LIMA           CLOUDY    63  60  90 S10       29.82R
$$

OHZ009>014-019>023-028>033-038-089-031200-
   NORTHEAST OHIO

CITY           SKY/WX    TMP DP  RH WIND       PRES   REMARKS
CLE-HOPKINS    CLOUDY    63  59  87 S12       29.78S
CLE-LAKEFRONT  CLOUDY    65  59  81 S9        29.75S
CUY CO. ARPT   CLOUDY    64  61  88 S14       29.76
LORAIN-ELYRIA  CLOUDY    62  59  90 S8        29.77R
ASHTABULA      CLOUDY    64  59  83 S15       29.73F
AKRON-CANTON   CLOUDY    65  57  75 S15G24    29.77F
WOOSTER        LGT RAIN  62  59  90 S9G18     29.78F
MANSFIELD      CLOUDY    61  60  97 S14       29.81S
YOUNGSTOWN     CLOUDY    64  59  83 SW10      29.82F
$$

OHZ042-051>053-060>062-070>072-077>081-031200-
  SOUTHWEST OHIO

CITY           SKY/WX    TMP DP  RH WIND       PRES   REMARKS
CINC-COVINGTON TSTM      63  63 100 E13       29.97F FOG
CINC-LUNKEN    TSTM      63  62  97 E7        29.97F
HAMILTON       TSTM      64  62  93 SE9       29.91F FOG
DAYTON         LGT RAIN  64  62  93 S20G29    29.86F
WRIGHT-PAT AFB NOT AVBL
DAYTON GENERAL NOT AVBL
WILMINGTON     TSTM      62  59  90 SE3       30.00R FOG
$$

OHZ036-037-039>041-045>050-054>059-063>069-073>076-082>088-031200-
  CENTRAL AND SOUTHEAST OHIO

CITY           SKY/WX    TMP DP  RH WIND       PRES   REMARKS
COLUMBUS       LGT RAIN  63  62  97 S9        29.89F
OSU AIRPORT    LGT RAIN  63  61  93 S9        29.88F
BOLTON FIELD   TSTM      62  62  98 S12       29.92F
RICKENBACK AFB RAIN      63  60  90 S3        29.93S
NEWARK         LGT RAIN  65  60  84 SW6       29.91F
MARION         CLOUDY    62  60  93 S13       29.82R
LANCASTER      LGT RAIN  65  60  84 SW6       29.94F
ZANESVILLE     CLOUDY    65  57  75 SW3       29.91F
NEW PHILLY     CLOUDY    63  58  83 SE8       29.87F
$$



USA.gov is the U.S. government's official web portal to all federal, state and local government web resources and services.